Location: Goudex
(43.3760°N, 0.9543°E)
Time: 15:21:55
(UTC+00:00)

CZ-2C R/B - Pass Details

Date: 20 November 2019
Orbit: 667 x 785 km, 98.1° (Epoch: 06 December)

Event Time Altitude Azimuth Distance (km) Brightness Sun altitude
Rises 05:37:39 0° 359° (N) 3,153 5.5 -14.0°
Reaches altitude 10° 05:40:31 10° 342° (NNW) 2,204 4.6 -13.5°
Maximum altitude 05:43:52 19° 298° (WNW) 1,641 3.6 -13.0°
Enters shadow 05:44:31 19° 287° (WNW) 1,660 3.6 -12.8°
